Moody AFB, GA

12:08 AM EST on December 04, 2016 (GMT -0500)
Moody Air Force Base

Weather History for KVAD - November, 2012

Change the Weather History Date:

Wednesday, November 14, 2012

  Actual Average Record
Temperature  
Mean Temperature 56 °F -  
Max Temperature 61 °F 68 °F 80 °F (2005)
Min Temperature 51 °F 48 °F 32 °F (2013)
Degree Days  
Heating Degree Days 9    
Growing Degree Days 6 (Base 50)    
Moisture  
Dew Point 53 °F    
Average Humidity 93    
Maximum Humidity 100    
Minimum Humidity 82    
Precipitation  
Precipitation 0.00 in - - ()
Sea Level Pressure  
Sea Level Pressure 30.24 in    
Wind  
Wind Speed 8 mph (NE)    
Max Wind Speed 12 mph    
Max Gust Speed -    
Visibility 10 miles    
Events      
Averages and records for this station are not official NWS values.
T = Trace of Precipitation, MM = Missing Value Source: NWS Daily Summary

Daily Weather History Graph

Daily Weather History Graph

Search for Another Location

Airport or City:

Trip Planner

Search our weather history database for the weather conditions in past years. The results will help you decide how hot, cold, wet, or windy it might be!

Date:

Astronomy

Nov. 14, 2012 Rise Set
Actual Time 6:59 AM EST 5:35 PM EST
Civil Twilight 6:33 AM EST 6:00 PM EST
Nautical Twilight 6:04 AM EST 6:29 PM EST
Astronomical Twilight 5:35 AM EST 6:58 PM EST
Moon 7:43 AM EST (11/14) 6:26 PM EST (11/14)
Length of Visible Light 11h 27m
Length of Day
10h 36m
New Moon, 1% of the Moon is Illuminated
Nov 14
New Moon
Nov 20
First Quarter
Nov 28
Full
Dec 6
Last Quarter
Dec 13
New

Hourly Weather History & Observations

Time (EST) Temp. Dew Point Humidity Pressure Visibility Wind Dir Wind Speed Gust Speed Precip Events Conditions
12:12 AM 60.8 °F 57.2 °F 88% 30.21 in 10.0 mi NE 6.9 mph - N/A   Overcast
12:24 AM 60.8 °F 59.0 °F 94% 30.21 in 10.0 mi NE 5.8 mph - N/A   Overcast
12:55 AM 61.3 °F 59.4 °F 93% 30.20 in 10.0 mi NE 6.9 mph - N/A   Overcast
1:10 AM 60.8 °F 59.0 °F 94% 30.19 in 10.0 mi NE 10.4 mph - N/A   Overcast
1:55 AM 60.8 °F 59.2 °F 94% 30.19 in 10.0 mi ENE 8.1 mph - N/A   Overcast
2:55 AM 59.7 °F 58.1 °F 94% 30.19 in 10.0 mi NE 10.4 mph - N/A   Overcast
3:17 AM 59.0 °F 57.2 °F 94% 30.19 in 10.0 mi NE 8.1 mph - N/A   Overcast
3:55 AM 58.8 °F 57.4 °F 95% 30.19 in 10.0 mi ENE 5.8 mph - N/A   Overcast
4:55 AM 57.4 °F 55.9 °F 95% 30.20 in 10.0 mi NE 10.4 mph - N/A   Overcast
5:47 AM 55.4 °F 53.6 °F 94% 30.22 in 10.0 mi ENE 9.2 mph - N/A   Overcast
5:55 AM 56.3 °F 54.5 °F 94% 30.23 in 10.0 mi ENE 10.4 mph - N/A   Overcast
6:12 AM 55.4 °F 53.6 °F 94% 30.23 in 10.0 mi NE 8.1 mph - N/A   Overcast
6:55 AM 54.7 °F 53.1 °F 94% 30.25 in 10.0 mi NE 8.1 mph - N/A   Overcast
7:17 AM 53.6 °F 53.6 °F 100% 30.25 in 10.0 mi ENE 8.1 mph - N/A   Overcast
7:55 AM 54.3 °F 52.9 °F 95% 30.26 in 10.0 mi NE 9.2 mph - N/A   Overcast
8:55 AM 54.3 °F 52.9 °F 95% 30.29 in 10.0 mi NE 8.1 mph - N/A   Overcast
9:11 AM 53.6 °F 53.6 °F 100% 30.30 in 10.0 mi NE 10.4 mph - N/A   Overcast
9:45 AM 53.6 °F 53.6 °F 100% 30.28 in 10.0 mi ENE 9.2 mph - N/A   Overcast
9:55 AM 54.0 °F 53.8 °F 99% 30.30 in 3.0 mi NE 6.9 mph - N/A   Overcast
10:20 AM 53.6 °F 53.6 °F 100% 30.30 in 4.0 mi ENE 9.2 mph - N/A   Overcast
10:55 AM 54.1 °F 53.1 °F 96% 30.29 in 10.0 mi ENE 11.5 mph - N/A   Overcast
10:59 AM 53.6 °F 53.6 °F 100% 30.29 in 10.0 mi ENE 10.4 mph - N/A   Overcast
11:08 AM 53.6 °F 53.6 °F 100% 30.29 in 10.0 mi NE 9.2 mph - N/A   Overcast
11:22 AM 55.4 °F 53.6 °F 94% 30.28 in 10.0 mi NNE 9.2 mph - N/A   Overcast
11:33 AM 55.4 °F 53.6 °F 94% 30.29 in 10.0 mi NE 8.1 mph - N/A   Overcast
11:55 AM 55.4 °F 52.9 °F 91% 30.28 in 10.0 mi NNE 9.2 mph - N/A   Overcast
12:03 PM 55.4 °F 53.6 °F 94% 30.27 in 10.0 mi NE 9.2 mph - N/A   Overcast
12:04 PM 55.4 °F 53.6 °F 94% 30.27 in 10.0 mi NE 8.1 mph - N/A   Overcast
12:16 PM 55.4 °F 53.6 °F 94% 30.27 in 10.0 mi NE 5.8 mph - N/A   Overcast
12:47 PM 55.4 °F 53.6 °F 94% 30.25 in 10.0 mi NE 8.1 mph - N/A   Overcast
12:55 PM 55.9 °F 52.9 °F 89% 30.25 in 10.0 mi NE 8.1 mph - N/A   Overcast
1:02 PM 55.4 °F 53.6 °F 94% 30.25 in 10.0 mi ENE 9.2 mph - N/A   Overcast
1:45 PM 55.4 °F 51.8 °F 88% 30.24 in 10.0 mi ENE 10.4 mph - N/A   Overcast
1:48 PM 55.4 °F 51.8 °F 88% 30.23 in 10.0 mi NE 10.4 mph - N/A   Overcast
1:55 PM 56.5 °F 52.5 °F 87% 30.23 in 10.0 mi ENE 8.1 mph - N/A   Overcast
2:04 PM 57.2 °F 51.8 °F 82% 30.23 in 10.0 mi Variable 6.9 mph - N/A   Overcast
2:55 PM 56.7 °F 52.2 °F 85% 30.22 in 10.0 mi NE 6.9 mph - N/A   Overcast
3:17 PM 55.4 °F 51.8 °F 88% 30.22 in 10.0 mi ENE 6.9 mph - N/A   Overcast
3:18 PM 55.4 °F 51.8 °F 88% 30.22 in 10.0 mi ENE 6.9 mph - N/A   Overcast
3:26 PM 57.2 °F 51.8 °F 82% 30.22 in 10.0 mi ENE 4.6 mph - N/A   Overcast
3:38 PM 57.2 °F 51.8 °F 82% 30.21 in 10.0 mi ENE 5.8 mph - N/A   Overcast
3:40 PM 57.2 °F 51.8 °F 82% 30.21 in 10.0 mi ENE 8.1 mph - N/A   Overcast
3:52 PM 57.2 °F 51.8 °F 82% 30.21 in 10.0 mi ENE 8.1 mph - N/A   Overcast
3:55 PM 56.5 °F 52.2 °F 85% 30.21 in 10.0 mi East 9.2 mph - N/A   Overcast
4:29 PM 55.4 °F 51.8 °F 88% 30.22 in 10.0 mi NE 5.8 mph - N/A   Overcast
4:47 PM 55.4 °F 51.8 °F 88% 30.21 in 10.0 mi NE 8.1 mph - N/A   Overcast
4:55 PM 55.0 °F 52.2 °F 90% 30.22 in 10.0 mi NE 5.8 mph - N/A   Overcast
4:57 PM 55.4 °F 51.8 °F 88% 30.21 in 10.0 mi ENE 5.8 mph - N/A   Overcast
5:11 PM 55.4 °F 51.8 °F 88% 30.21 in 10.0 mi NE 6.9 mph - N/A   Overcast
5:37 PM 55.4 °F 51.8 °F 88% 30.21 in 10.0 mi ENE 8.1 mph - N/A   Overcast
5:55 PM 54.5 °F 52.3 °F 92% 30.22 in 10.0 mi ENE 6.9 mph - N/A   Overcast
6:11 PM 53.6 °F 51.8 °F 94% 30.24 in 10.0 mi NE 6.9 mph - N/A   Overcast
6:27 PM 53.6 °F 51.8 °F 94% 30.24 in 10.0 mi NE 4.6 mph - N/A   Overcast
6:42 PM 53.6 °F 51.8 °F 94% 30.24 in 10.0 mi NE 10.4 mph - N/A   Overcast
6:55 PM 54.0 °F 52.3 °F 94% 30.24 in 10.0 mi ENE 6.9 mph - N/A   Overcast
6:57 PM 53.6 °F 51.8 °F 94% 30.24 in 10.0 mi ENE 6.9 mph - N/A   Overcast
7:17 PM 53.6 °F 51.8 °F 94% 30.25 in 10.0 mi NE 4.6 mph - N/A   Overcast
7:55 PM 53.1 °F 52.9 °F 99% 30.25 in 10.0 mi Variable 5.8 mph - N/A   Overcast
8:05 PM 53.6 °F 53.6 °F 100% 30.25 in 10.0 mi ENE 6.9 mph - N/A   Overcast
8:17 PM 53.6 °F 53.6 °F 100% 30.24 in 10.0 mi ENE 6.9 mph - N/A   Overcast
8:46 PM 53.6 °F 53.6 °F 100% 30.24 in 10.0 mi NNE 8.1 mph - N/A   Overcast
8:55 PM 53.1 °F 52.7 °F 99% 30.25 in 10.0 mi NNE 8.1 mph - N/A   Overcast
8:57 PM 53.6 °F 53.6 °F 100% 30.25 in 10.0 mi NE 8.1 mph - N/A   Overcast
9:55 PM 52.7 °F 51.8 °F 97% 30.24 in 10.0 mi NE 3.5 mph - N/A   Overcast
10:55 PM 52.2 °F 51.3 °F 97% 30.22 in 10.0 mi NE 5.8 mph - N/A   Overcast
11:26 PM 51.8 °F 50.0 °F 94% 30.23 in 10.0 mi NNE 4.6 mph - N/A   Overcast
11:41 PM 51.8 °F 50.0 °F 94% 30.22 in 10.0 mi NE 3.5 mph - N/A   Overcast
11:50 PM 51.8 °F 50.0 °F 94% 30.22 in 10.0 mi NNE 4.6 mph - N/A   Overcast
11:55 PM 52.2 °F 50.5 °F 94% 30.22 in 10.0 mi NNE 5.8 mph - N/A   Overcast